Location: Elstree
(51.6403°N, 0.2969°W)
Time: 22:29:22
(UTC+00:00)

deb Delta 107 - Pass Details

Date: 28 January 2022
Orbit: 707 x 861 km, 97.7° (Epoch: 21 May)

Event Time Altitude Azimuth Distance (km) Brightness Sun altitude
Rises 05:05:45 0° 31° (NNE) 3,117 ? -24.7°
Reaches altitude 10° 05:09:48 10° 65° (ENE) 2,201 ? -24.1°
Maximum altitude 05:11:19 11° 84° (E) 2,112 ? -23.9°
Drops below altitude 10° 05:12:51 10° 102° (ESE) 2,210 ? -23.6°
Sets 05:17:01 0° 137° (SE) 3,179 ? -23.0°
